| time (UTC) | temp C | wind direction | speed KPH | gust KPH | rain 1hr cm | rain 24hr cm | rain mn cm | humidity % | barometer mb |
| 20260506134531 | 12 | 285 | 0.0 | 0.0 | 0.00 | 0.00 | 0.00 | 75 | 1020.7 |
| 20260506133042 | 12 | 285 | 0.0 | 0.0 | 0.00 | 0.00 | 0.00 | 76 | 1020.6 |
| 20260506131532 | 12 | 285 | 0.0 | 0.0 | 0.00 | 0.00 | 0.00 | 76 | 1020.6 |
| 20260506130028 | 12 | 285 | 0.0 | 0.0 | 0.00 | 0.00 | 0.00 | 75 | 1020.5 |
| 20260506124524 | 12 | 285 | 0.0 | 0.0 | 0.00 | 0.00 | 0.00 | 76 | 1020.3 |
| 20260506123024 | 12 | 285 | 0.0 | 0.0 | 0.00 | 0.00 | 0.00 | 76 | 1020.3 |
| 20260506121523 | 12 | 285 | 0.0 | 0.0 | 0.00 | 0.00 | 0.00 | 76 | 1020.2 |
| 20260506120034 | 12 | 285 | 0.0 | 0.0 | 0.00 | 0.00 | 0.00 | 76 | 1020.1 |
| 20260506114521 | 12 | 285 | 0.0 | 0.0 | 0.00 | 0.00 | 0.00 | 77 | 1020.0 |
| 20260506113020 | 12 | 285 | 0.0 | 0.0 | 0.00 | 0.00 | 0.00 | 76 | 1020.0 |
| 20260506111518 | 12 | 285 | 0.0 | 0.0 | 0.00 | 0.00 | 0.00 | 77 | 1019.9 |
| 20260506110017 | 12 | 285 | 0.0 | 0.0 | 0.00 | 0.00 | 0.00 | 77 | 1019.7 |
| 20260506104516 | 12 | 285 | 0.0 | 0.0 | 0.00 | 0.00 | 0.00 | 77 | 1019.8 |
| 20260506103015 | 12 | 285 | 0.0 | 0.0 | 0.00 | 0.00 | 0.00 | 77 | 1019.6 |
| 20260506101517 | 12 | 284 | 0.0 | 0.0 | 0.00 | 0.00 | 0.00 | 77 | 1019.4 |
| 20260506100025 | 12 | 284 | 0.0 | 0.0 | 0.00 | 0.00 | 0.00 | 77 | 1019.4 |
| 20260506094513 | 12 | 284 | 0.0 | 0.0 | 0.00 | 0.05 | 0.00 | 78 | 1019.3 |
| 20260506093014 | 12 | 284 | 0.0 | 0.0 | 0.00 | 0.05 | 0.00 | 78 | 1019.4 |
| 20260506091513 | 12 | 284 | 0.0 | 0.0 | 0.00 | 0.05 | 0.00 | 78 | 1019.4 |
| 20260506090012 | 12 | 284 | 0.0 | 0.0 | 0.00 | 0.05 | 0.00 | 78 | 1019.4 |
| 20260506084510 | 12 | 284 | 0.0 | 0.0 | 0.00 | 0.13 | 0.00 | 79 | 1019.4 |
| 20260506083010 | 12 | 284 | 0.0 | 0.0 | 0.00 | 0.13 | 0.00 | 79 | 1019.5 |
| 20260506081510 | 12 | 284 | 0.0 | 0.0 | 0.00 | 0.13 | 0.00 | 79 | 1019.4 |
| 20260506073003 | 12 | 324 | 0.0 | 0.0 | 0.00 | 0.13 | 0.00 | 80 | 1019.1 |
| 20260506071503 | 12 | 355 | 0.0 | 0.0 | 0.00 | 0.13 | 0.00 | 80 | 1018.9 |
| 20260506061557 | 12 | 308 | 0.0 | 0.0 | 0.00 | 0.28 | 0.13 | 80 | 1018.6 |
| 20260506044602 | 12 | 323 | 0.0 | 0.0 | 0.00 | 0.28 | 0.13 | 81 | 1017.8 |
| 20260506043045 | 12 | 318 | 0.0 | 0.0 | 0.00 | 0.28 | 0.13 | 82 | 1017.5 |
| 20260506041545 | 12 | 316 | 0.0 | 0.0 | 0.00 | 0.28 | 0.13 | 82 | 1017.4 |
| 20260506040045 | 12 | 313 | 0.0 | 0.0 | 0.00 | 0.28 | 0.13 | 83 | 1017.2 |
| 20260506034542 | 13 | 319 | 0.0 | 0.0 | 0.00 | 0.28 | 0.13 | 83 | 1017.1 |
| 20260506033040 | 13 | 299 | 0.0 | 0.0 | 0.00 | 0.28 | 0.13 | 82 | 1016.8 |
| 20260506031535 | 14 | 304 | 0.0 | 0.0 | 0.00 | 0.28 | 0.13 | 80 | 1016.4 |
| 20260506030034 | 15 | 281 | 0.0 | 0.0 | 0.00 | 0.28 | 0.13 | 78 | 1016.2 |
| 20260506024536 | 15 | 306 | 0.0 | 0.0 | 0.00 | 0.41 | 0.13 | 78 | 1016.1 |
| 20260506023043 | 15 | 306 | 0.0 | 0.0 | 0.00 | 0.41 | 0.13 | 77 | 1016.0 |
| 20260506021535 | 15 | 322 | 0.0 | 0.0 | 0.00 | 0.41 | 0.13 | 77 | 1015.9 |
| 20260506020034 | 15 | 327 | 0.0 | 0.0 | 0.00 | 0.41 | 0.13 | 76 | 1015.7 |
| 20260506014530 | 15 | 360 | 0.0 | 0.0 | 0.00 | 0.51 | 0.13 | 76 | 1015.6 |
| 20260506013030 | 15 | 336 | 0.0 | 0.0 | 0.00 | 0.51 | 0.13 | 76 | 1015.6 |
| 20260506011532 | 16 | 355 | 0.0 | 0.0 | 0.00 | 0.51 | 0.13 | 76 | 1015.6 |
| 20260506010044 | 16 | 13 | 0.0 | 0.0 | 0.00 | 0.51 | 0.13 | 76 | 1015.5 |
| 20260506004529 | 16 | 13 | 0.0 | 0.0 | 0.00 | 0.58 | 0.13 | 75 | 1015.5 |
| 20260506003029 | 16 | 5 | 0.0 | 0.0 | 0.00 | 0.58 | 0.13 | 73 | 1015.5 |
| 20260506001528 | 17 | 40 | 0.0 | 0.0 | 0.00 | 0.58 | 0.13 | 74 | 1015.3 |
| 20260506000028 | 17 | 360 | 0.0 | 0.0 | 0.00 | 0.58 | 0.13 | 74 | 1015.2 |
| 20260505234536 | 17 | 15 | 0.0 | 0.0 | 0.00 | 0.66 | 0.13 | 73 | 1015.3 |
| 20260505233034 | 17 | 25 | 0.0 | 0.0 | 0.00 | 0.66 | 0.13 | 72 | 1015.2 |
| 20260505231531 | 17 | 350 | 0.0 | 0.0 | 0.00 | 0.66 | 0.13 | 74 | 1015.3 |
| 20260505230024 | 17 | 343 | 0.0 | 0.0 | 0.00 | 0.66 | 0.13 | 73 | 1015.2 |
| 20260505224523 | 17 | 302 | 0.0 | 0.0 | 0.00 | 0.71 | 0.13 | 74 | 1015.2 |
| 20260505223023 | 17 | 321 | 0.0 | 0.0 | 0.00 | 0.71 | 0.13 | 75 | 1015.3 |
| 20260505221523 | 17 | 320 | 0.0 | 0.0 | 0.00 | 0.71 | 0.13 | 74 | 1015.3 |
| 20260505220021 | 17 | 304 | 0.0 | 0.0 | 0.00 | 0.71 | 0.13 | 75 | 1015.4 |
| 20260505214541 | 17 | 343 | 0.0 | 0.0 | 0.00 | 0.71 | 0.13 | 74 | 1015.5 |
| 20260505213021 | 17 | 294 | 0.0 | 0.0 | 0.00 | 0.71 | 0.13 | 74 | 1015.7 |
| 20260505211517 | 17 | 15 | 0.0 | 0.0 | 0.00 | 0.71 | 0.13 | 74 | 1015.9 |
| 20260505210016 | 17 | 338 | 0.0 | 0.0 | 0.00 | 0.71 | 0.13 | 74 | 1015.9 |
| 20260505204514 | 17 | 337 | 0.0 | 0.0 | 0.00 | 0.71 | 0.13 | 75 | 1015.9 |
| 20260505203018 | 17 | 314 | 0.0 | 0.0 | 0.00 | 0.71 | 0.13 | 75 | 1016.0 |
| 20260505201517 | 16 | 23 | 0.0 | 0.0 | 0.00 | 0.71 | 0.13 | 74 | 1016.1 |
| 20260505200012 | 16 | 289 | 0.0 | 0.0 | 0.00 | 0.71 | 0.13 | 75 | 1016.1 |
| 20260505194509 | 16 | 309 | 0.0 | 0.0 | 0.00 | 0.71 | 0.13 | 75 | 1016.1 |
| 20260505193010 | 16 | 355 | 0.0 | 0.0 | 0.00 | 0.71 | 0.13 | 78 | 1016.2 |
| 20260505191508 | 16 | 48 | 0.0 | 0.0 | 0.00 | 0.71 | 0.13 | 76 | 1016.3 |
| 20260505190005 | 16 | 333 | 0.0 | 0.0 | 0.00 | 0.71 | 0.13 | 77 | 1016.2 |
| 20260505184503 | 16 | 44 | 0.0 | 0.0 | 0.00 | 0.71 | 0.13 | 75 | 1016.2 |
| 20260505183102 | 16 | 28 | 0.0 | 0.0 | 0.00 | 0.71 | 0.13 | 75 | 1016.3 |
| 20260505181558 | 16 | 320 | 0.0 | 0.0 | 0.00 | 0.71 | 0.13 | 76 | 1016.2 |
| 20260505180108 | 16 | 321 | 0.0 | 0.0 | 0.00 | 0.71 | 0.13 | 77 | 1016.2 |
| 20260505174602 | 15 | 42 | 0.0 | 0.0 | 0.00 | 0.71 | 0.13 | 77 | 1016.0 |
| 20260505173051 | 15 | 26 | 0.0 | 0.0 | 0.00 | 0.71 | 0.13 | 78 | 1015.8 |
| 20260505171547 | 15 | 68 | 0.0 | 0.0 | 0.00 | 0.71 | 0.13 | 78 | 1015.8 |
| 20260505170047 | 15 | 62 | 0.0 | 0.0 | 0.00 | 0.71 | 0.13 | 78 | 1016.0 |
| 20260505164547 | 15 | 93 | 0.0 | 0.0 | 0.00 | 0.71 | 0.13 | 79 | 1015.8 |
| 20260505163041 | 14 | 75 | 0.0 | 0.0 | 0.00 | 0.71 | 0.13 | 80 | 1015.8 |
| 20260505161539 | 14 | 42 | 0.0 | 0.0 | 0.00 | 0.71 | 0.13 | 81 | 1015.7 |
| 20260505153032 | 13 | 50 | 0.0 | 0.0 | 0.00 | 0.71 | 0.13 | 79 | 1015.5 |
| 20260505151532 | 12 | 11 | 0.0 | 0.0 | 0.00 | 0.71 | 0.13 | 73 | 1015.5 |